Torna al catalogo

CZ-3A DEB

LostHEO
NORAD 36969·DEBRIS·🇨🇳 China

Lanciato Feb 2, 2007 da Xichang Satellite Launch Center

Loading…

Prossimi Passaggi (prossime 24 ore)

TLE

ObsoletoSource: Space-Track

Epoca: Jan 18, 2011, 00:57 UTC

1 36969U 07003AF  11018.04002900  .00000126  00000-0  20568-2 0  9991
2 36969  26.5928 332.0643 7610686 127.5680 328.8894  1.80220303 20004

Traccia CZ-3A DEB in tempo reale con AllMySat

Download on the App Store